Content
SEND FEEDBACK

Daily
Averages
Monthly
Summary
Australia

NARROMINE, NEW SOUTH WALES


Home > Oceania > Australia > New South Wales
Elevation: 782 feet     Latitude: 32 13S     Longitude: 148 14E

WEATHER
 
SELECT A DAY
Number of Records: 212,012;   Date Range: 7/1/96 - 7/23/14
 
SHARE

PRINT THIS DATA

[ ← Previous Day ]
WEATHER ALMANAC - JANUARY 31, 2013
[ Next Day → ]
[ °C ]   °F
Weather ElementAverageHighLow
Temperature81.7 °F96.8 °F (3:42 pm)64.4 °F (1:00 am)
Dewpoint53.4 °F66.2 °F (8:00 am)35.6 °F (7:30 pm)
Humidity45.8 %88 % (4:00 am)13 % (7:30 pm)
Barometer29.82 in29.92 in (12:30 am)29.68 in (6:00 pm)
Wind Speed11.3 mph18.4 mph (2:30 pm)
Wind Gust31.1 mph (3:42 pm)
Weather ElementAverage
Visibility6.2 mi
Wind DirectionSSW (196.3 °)

Weather ElementTotal
Precipitation---
Cooling Degree Days15.6 (Base 65)
Growing Degree Days30.6 (Base 50)
Averaged from 48 records on January 31, 2013
WEATHER CONDITIONS BREAKOUT
WIND DIRECTION BREAKOUT
WEATHER BY HOUR - JANUARY 31, 2013
[ °C ]   °F
Local TimeTemperatureDewpointHumidityBarometerVisibilityWind DirectionWind SpeedGust SpeedPrecipitationEventsConditions
12:30 AM68.0 °F41.0 °F37 %29.92 inSSE (160°)9.2 mph
1:00 AM64.4 °F44.6 °F49 %29.92 inESE (120°)9.2 mph
1:30 AM66.2 °F48.2 °F52 %29.92 inESE (120°)8.1 mph
2:00 AM68.0 °F57.2 °F68 %29.92 inEast (100°)9.2 mph
2:30 AM68.0 °F59.0 °F73 %29.89 inESE (120°)9.2 mph
3:00 AM68.0 °F60.8 °F78 %29.89 in6.2 miSE (130°)10.4 mph
3:30 AM68.0 °F62.6 °F83 %29.89 in6.2 miEast (100°)12.7 mph
4:00 AM68.0 °F64.4 °F88 %29.89 in6.2 miEast (100°)12.7 mph
4:30 AM68.0 °F64.4 °F88 %29.89 in6.2 miESE (110°)12.7 mph
5:00 AM68.0 °F64.4 °F88 %29.89 in6.2 miESE (110°)12.7 mph
5:30 AM68.0 °F64.4 °F88 %29.89 in6.2 miEast (100°)12.7 mph
6:00 AM68.0 °F64.4 °F88 %29.89 in6.2 miEast (90°)13.8 mph
6:30 AM68.0 °F64.4 °F88 %29.89 in6.2 miEast (100°)15.0 mph
7:00 AM68.0 °F64.4 °F88 %29.92 in6.2 miESE (110°)13.8 mph
7:30 AM69.8 °F64.4 °F83 %29.92 in6.2 miEast (100°)12.7 mph
8:00 AM73.4 °F66.2 °F78 %29.92 in6.2 miEast (90°)13.8 mph
8:30 AM75.2 °F66.2 °F73 %29.92 inEast (90°)11.5 mph
9:00 AM77.0 °F66.2 °F69 %29.92 inENE (60°)10.4 mph
9:30 AM80.6 °F64.4 °F58 %29.92 inNNE (20°)12.7 mph
10:00 AM82.4 °F64.4 °F54 %29.92 inNorth (10°)13.8 mph
10:30 AM84.2 °F66.2 °F55 %29.92 inNorth (350°)13.8 mph
11:00 AM86.0 °F62.6 °F45 %29.89 inNNW (330°)15.0 mph
11:30 AM87.8 °F60.8 °F40 %29.89 inNorth (360°)11.5 mphScattered Clouds
12:00 PM89.6 °F53.6 °F29 %29.86 inNW (310°)8.1 mph
12:30 PM91.4 °F51.8 °F26 %29.86 inNNW (330°)17.3 mph
1:00 PM91.4 °F50.0 °F24 %29.83 inNNW (330°)15.0 mph
1:30 PM95.0 °F53.6 °F25 %29.83 inNorth (360°)15.0 mph
2:00 PM93.2 °F50.0 °F23 %29.80 inNW (310°)13.8 mph
2:30 PM95.0 °F50.0 °F22 %29.80 inNorth (350°)18.4 mph
3:00 PM95.0 °F46.4 °F19 %29.77 inNNW (330°)17.3 mph
3:30 PM95.0 °F44.6 °F18 %29.74 inNNW (330°)15.0 mph
3:42 PM96.8 °F44.6 °F17 %29.74 inNW (320°)17.3 mph31.1 mph
4:00 PM96.8 °F44.6 °F17 %29.74 inNW (310°)11.5 mph
4:30 PM96.8 °F44.6 °F17 %29.71 inNorth (350°)15.0 mph
5:00 PM96.8 °F42.8 °F16 %29.71 inWNW (300°)16.1 mph
5:30 PM96.8 °F41.0 °F15 %29.71 inWNW (290°)15.0 mph
6:00 PM96.8 °F41.0 °F15 %29.68 in6.2 miWest (270°)11.5 mph
6:30 PM95.0 °F44.6 °F18 %29.68 in6.2 miNW (320°)8.1 mph
7:00 PM95.0 °F39.2 °F14 %29.68 in6.2 miWNW (300°)12.7 mph
7:30 PM93.2 °F35.6 °F13 %29.68 in6.2 miWNW (300°)10.4 mph
8:00 PM89.6 °F39.2 °F17 %29.68 in6.2 miWNW (300°)5.8 mph
8:30 PM84.2 °F41.0 °F22 %29.68 in6.2 miCalm
9:00 PM82.4 °F42.8 °F25 %29.68 in6.2 miCalm
9:30 PM80.6 °F41.0 °F24 %29.68 in6.2 miNW (320°)1.2 mph
10:00 PM78.8 °F50.0 °F36 %29.71 inNNE (30°)8.1 mph
10:30 PM78.8 °F51.8 °F39 %29.71 in6.2 miNNE (30°)2.3 mph
11:00 PM77.0 °F55.4 °F47 %29.71 inNE (40°)5.8 mph
11:30 PM77.0 °F57.2 °F50 %29.71 in6.2 miNW (310°)6.9 mph
Hourly data recorded from YSDU, located miles away from Narromine, New South Wales







STORIES FROM OUR PARTNERS